Weather in San Ramon

United States     37°44′34″N   121°56′18″W
temp.,
°C
wind,
m/s
gust,
m/s
humid.,
%
clouds,
%
prec.,
mm/h
press.,
hPa
HPBL,
m
18 september, sat
sat1823:00+11sw22910 0.0 101654
02:00+11wsw22951 0.0 101765
05:00+12s228949 0.0 101784
08:00+15ssw237697 0.0 1018199
11:00+19wsw356285 0.0 1018841
14:00+22w455725 0.0 10181042
17:00+21w35580 0.0 1017842
20:00+16w228810 0.0 101846
19 september, sun
sun1923:00+15ssw119396 0.0 101833
02:00+17ssw1282100 0.0 1017185
05:00+17wsw1289100 0.1 1017148
08:00+16w138689 0.0 1018322
11:00+22wnw34431 0.0 10181096
14:00+24w44353 0.0 10161482
17:00+21wsw34446 0.0 1015600
20:00+14ssw11770 0.0 101630
20 september, mon
mon2023:00+13ssw11810 0.0 101619
02:00+13wsw00780 0.0 101512
05:00+13n11720 0.0 101411
08:00+16ene11500 0.0 101546
11:00+25nne24210 0.0 1015929
14:00+30nne34140 0.0 10131211
17:00+31nw12130 0.0 10111141
20:00+20w11320 0.0 101318
21 september, tue
tue2123:00+18ssw11390 0.0 101413
02:00+18ese11360 0.0 101411
05:00+18ene11320 0.0 101511
08:00+20ne21280 0.0 101641
11:00+32ene12130 0.0 1017608
14:00+36wsw22110 0.0 10151471
17:00+32w33140 0.0 1015608
20:00+22w22280 0.0 101718
22 september, wed
wed2223:00+20wsw11370 0.0 101815
02:00+19sw11390 0.0 101811
05:00+18wsw114310 0.0 101813
08:00+20sw11380 0.0 101939
11:00+29wsw22205 0.0 1018566
14:00+32wsw32170 0.0 1016931
17:00+29wsw231922 0.0 1015539
20:00+20ssw11325 0.0 101518